[[{"header":{"parameterUnit":"m.s-1","parameterCategory":1,"la1":30.2991,"la2":30.254,"lo1":-89.0895,"lo2":-89.0444,"dy":0.0017,"dx":0.0017,"nx":28,"ny":28,"refTime":"2025-12-24T03:00:00:Z","depth":0,"parameterNumber":2,"parameterNumberName":"U-component_of_WINDS"},"data":[0,0,0,0,0,0,0,0,0,0,0,0,0,0,0,0,0,0,0,0,0,0,0,0,0,0,0,0,0,0,0,0,0,0,0,0,0,0,0,0,0,0,0,0,0,0,0,0,0,0,0,0,0,0,0,0,0,0,2.3418,2.3419,0,2.3523,2.3524,2.3525,2.3513,2.3511,2.3509,2.3508,2.3618,2.3622,2.3626,0,0,0,0,0,0,0,0,0,0,0,0,0,2.3211,2.3215,2.3418,2.3419,2.3421,2.3523,2.3524,2.3526,2.3513,2.3511,2.3509,2.3507,2.3616,2.3621,2.3627,0,0,0,0,0,0,0,0,0,0,0,0,0,2.3307,2.3216,2.3418,2.3427,2.3429,2.3522,2.3524,2.3526,2.3514,2.3511,2.3508,2.3506,2.3614,2.3621,2.3628,2.372,0,0,2.3648,2.3651,0,0,0,0,0,0,0,0,2.3302,2.3315,2.3424,2.3426,2.3429,2.3502,2.3491,2.3591,2.3514,2.3481,2.3508,2.3505,2.3581,2.3591,2.3616,2.3725,2.373,2.3649,2.3653,2.3656,2.3658,0,0,0,0,0,0,0,2.3295,2.331,2.346,2.3426,2.3429,2.3427,2.3438,2.351,2.3545,2.3484,2.3483,2.3496,2.3582,2.361,2.3619,2.3732,2.3649,2.3655,2.3659,2.3661,2.3924,2.3927,0,0,0,0,0,0,2.3286,2.3305,2.3456,2.3463,2.3358,2.3433,2.3445,2.3481,2.3544,2.3551,2.3498,2.3495,2.3599,2.3611,2.3622,2.3736,2.3656,2.3662,2.3666,2.3921,2.3925,2.3928,0,0,0,0,0,0,2.3281,2.3299,2.3452,2.3384,2.3403,2.3439,2.348,2.3485,2.3512,2.3554,2.356,2.3519,2.3598,2.3613,2.3696,2.3739,2.3665,2.3671,2.3918,2.3922,2.3927,2.3963,0,0,0,0,0,0,2.3276,2.3298,2.3332,2.3385,2.3407,2.3523,2.3483,2.3488,2.3523,2.352,2.3576,2.3583,2.3597,2.3686,2.3703,2.3747,2.3677,2.3914,2.392,2.3925,2.3958,2.3968,2.3976,0,0,0,0,0,2.3268,2.3339,2.3334,2.3352,2.345,2.3526,2.3538,2.3553,2.3527,2.3562,2.359,2.3581,2.3732,2.3695,2.3714,2.3761,2.3912,2.3918,2.3925,2.3954,2.3966,2.3976,0,0,0,0,0,0,2.3291,2.3345,2.3341,2.343,2.3473,2.3523,2.3568,2.3565,2.3617,2.3612,2.3628,2.3641,2.3725,2.3751,2.3709,2.3855,2.3819,2.3829,2.3834,2.3846,2.3855,2.3847,2.3682,0,0,0,0,0,2.3306,2.3362,2.3407,2.3481,2.3503,2.3532,2.3565,2.3573,2.3618,2.3637,2.367,2.3716,2.3774,2.3811,2.3867,2.3962,2.3975,2.4004,2.4013,2.4021,2.4029,2.4083,2.4097,2.395,2.395,2.395,0,0,2.3338,2.3375,2.3409,2.3487,2.3521,2.3579,2.3548,2.361,2.3654,2.3647,2.3727,2.3754,2.3806,2.3896,2.3937,2.392,2.4073,2.4029,2.4034,2.404,2.4091,2.4105,2.4118,2.3954,2.3953,2.3953,0,0,2.3427,2.346,2.3526,2.3561,2.3614,2.3633,2.3649,2.37,2.3717,2.3798,2.3794,2.3848,2.3947,2.3984,2.4016,2.4122,2.4116,2.414,2.4188,2.424,2.4252,2.4262,2.43,2.4314,2.4148,2.4149,2.4149,0,2.3461,2.3547,2.3561,2.3625,2.366,2.3655,2.3723,2.3757,2.3825,2.385,2.383,2.3956,2.399,2.409,2.4115,2.4141,2.4161,2.4133,2.4249,2.4259,2.4269,2.4306,2.432,2.4151,2.4151,2.4151,2.415,0,2.3587,2.3647,2.3695,2.376,2.3801,2.3866,2.3891,2.3931,2.3935,2.3957,2.4041,2.4083,2.4147,2.4172,2.4177,2.4273,2.4261,2.4245,2.4209,2.4285,2.432,2.4334,2.4155,2.4154,2.4153,2.4152,0,0,2.3691,2.3764,2.3781,2.3812,2.387,2.3918,2.3984,2.4047,2.4081,2.4129,2.4186,2.4271,2.4257,2.4294,2.4303,2.4349,2.4431,2.4328,2.4329,2.4346,2.4541,2.4552,2.4568,2.4428,2.4431,2.4433,2.4536,0,2.3786,2.3902,2.3917,2.4021,2.4078,2.4076,2.4134,2.4177,2.42,2.4252,2.4278,2.4338,2.4315,2.4337,2.4382,2.4411,2.447,2.4404,2.4482,2.4484,2.4468,2.4586,2.4598,2.4693,2.455,2.4552,2.4554,0,2.3911,2.3962,2.4071,2.4123,2.4148,2.4199,2.4259,2.4309,2.4359,2.4372,2.4414,2.4418,2.4489,2.4451,2.4549,2.4503,2.4536,2.4556,2.456,2.4567,2.4523,2.4597,2.4724,2.4738,2.4575,2.4574,2.4572,0,2.3977,2.4073,2.4151,2.4177,2.424,2.4276,2.4304,2.4351,2.4389,2.4441,2.4466,2.4526,2.456,2.4607,2.4628,2.4598,2.4726,2.4689,2.474,2.4739,2.4766,2.4764,2.49,2.4788,2.4787,2.4787,2.4787,0,2.4081,2.4148,2.4182,2.423,2.4305,2.4323,2.4398,2.4425,2.4467,2.4522,2.4524,2.4575,2.46,2.4656,2.4673,2.4752,2.4767,2.4781,2.4785,2.4781,2.4779,2.4802,2.4796,2.4791,2.479,2.4789,2.4789,0,2.4166,2.4192,2.4277,2.4329,2.4344,2.4398,2.4444,2.4491,2.4514,2.4583,2.46,2.4637,2.4703,2.4729,2.4809,2.4821,2.4912,2.4911,2.4895,2.4896,2.4946,2.4941,2.5102,2.5124,2.4997,2.4998,2.4999,0,2.4231,2.4282,2.4341,2.4377,2.4406,2.4464,2.4503,2.4523,2.4563,2.4624,2.4665,2.473,2.4784,2.4889,2.4923,2.4985,2.4986,2.5038,2.4995,2.499,2.4987,2.4983,2.4989,2.5045,2.5047,2.5048,2.5049,0,2.4342,2.4353,2.4407,2.4467,2.4512,2.4561,2.4607,2.4637,2.4665,2.471,2.4777,2.4819,2.4901,2.4967,2.5031,2.5061,2.506,2.5062,2.5077,2.5073,2.5062,2.5069,2.4916,2.5058,2.5057,2.5056,2.5056,2.5056,2.442,2.4466,2.4515,2.4576,2.4613,2.4658,2.4705,2.4734,2.479,2.4858,2.4868,2.494,2.499,2.5076,2.5109,2.5167,2.5153,2.5175,2.518,2.5185,2.5189,2.5053,2.5178,2.5178,2.5178,2.5178,2.5178,0,2.4532,2.4563,2.462,2.4685,2.4734,2.4729,2.4781,2.4822,2.4885,2.4932,2.4984,2.5062,2.5126,2.5166,2.5231,2.5269,2.5271,2.5286,2.5283,2.529,2.5197,2.5177,2.5284,2.5284,2.5283,2.5283,2.5283,2.5283,2.4596,2.4674,2.4691,2.4788,2.482,2.489,2.492,2.4962,2.4999,2.5085,2.5138,2.5164,2.5209,2.5277,2.5336,2.5346,2.537,2.5386,2.5395,2.5307,2.5296,2.5286,2.5268,2.5391,2.5391,2.5483,2.5484,2.5485]},{"header":{"parameterUnit":"m.s-1","parameterCategory":1,"la1":30.2991,"la2":30.254,"lo1":-89.0895,"lo2":-89.0444,"dy":0.0017,"dx":0.0017,"nx":28,"ny":28,"refTime":"2025-12-24T03:00:00:Z","depth":0,"parameterNumber":3,"parameterNumberName":"V-component_of_WINDS"},"data":[0,0,0,0,0,0,0,0,0,0,0,0,0,0,0,0,0,0,0,0,0,0,0,0,0,0,0,0,0,0,0,0,0,0,0,0,0,0,0,0,0,0,0,0,0,0,0,0,0,0,0,0,0,0,0,0,0,0,0.4126,0.4126,0,0.4139,0.4139,0.4139,0.4153,0.4153,0.4154,0.4154,0.4166,0.4167,0.4167,0,0,0,0,0,0,0,0,0,0,0,0,0,0.4111,0.4111,0.4126,0.4126,0.4126,0.4139,0.4139,0.4139,0.4153,0.4153,0.4154,0.4154,0.4166,0.4167,0.4167,0,0,0,0,0,0,0,0,0,0,0,0,0,0.412,0.4111,0.4126,0.4135,0.4136,0.4139,0.4139,0.4139,0.4153,0.4153,0.4154,0.4154,0.4166,0.4166,0.4167,0.4162,0,0,0.4167,0.4168,0,0,0,0,0,0,0,0,0.4119,0.412,0.4133,0.4134,0.4135,0.4145,0.4139,0.4147,0.4153,0.4146,0.4154,0.4154,0.4159,0.416,0.4162,0.4163,0.4163,0.4167,0.4168,0.4168,0.4168,0,0,0,0,0,0,0,0.4119,0.412,0.4131,0.4133,0.4134,0.4137,0.4139,0.414,0.4151,0.4147,0.4148,0.4149,0.4159,0.4161,0.4162,0.4164,0.4167,0.4168,0.4168,0.4168,0.416,0.416,0,0,0,0,0,0,0.4117,0.4119,0.4131,0.4131,0.4128,0.4137,0.4139,0.4141,0.4151,0.4153,0.4149,0.415,0.4161,0.4162,0.4162,0.4157,0.4168,0.4168,0.4168,0.416,0.416,0.416,0,0,0,0,0,0,0.4117,0.4118,0.413,0.4126,0.4127,0.4137,0.414,0.4141,0.4143,0.4153,0.4154,0.4149,0.4161,0.4162,0.4162,0.4158,0.4168,0.4168,0.4161,0.416,0.416,0.4146,0,0,0,0,0,0,0.4116,0.4118,0.4117,0.4126,0.4128,0.413,0.4139,0.4142,0.4144,0.4145,0.4153,0.4155,0.4161,0.4161,0.4162,0.4158,0.4168,0.4161,0.4161,0.416,0.4147,0.4146,0.4144,0,0,0,0,0,0.4115,0.4113,0.4117,0.4118,0.4127,0.413,0.4131,0.4139,0.4143,0.4142,0.4148,0.4154,0.4158,0.4161,0.4162,0.4158,0.4162,0.4161,0.416,0.4148,0.4146,0.4144,0,0,0,0,0,0,0.4103,0.4114,0.4119,0.4118,0.4123,0.4132,0.4131,0.4137,0.414,0.4141,0.415,0.4152,0.415,0.4154,0.4158,0.4153,0.4161,0.416,0.4151,0.4149,0.4148,0.4147,0.4169,0,0,0,0,0,0.41,0.4102,0.4112,0.4111,0.4113,0.4121,0.4123,0.4128,0.4133,0.4135,0.4141,0.4145,0.4147,0.4148,0.4151,0.4148,0.4149,0.4145,0.4143,0.4142,0.4141,0.4139,0.4137,0.4157,0.4157,0.4157,0,0,0.4095,0.4101,0.4102,0.4108,0.4112,0.4113,0.4123,0.4124,0.4125,0.4136,0.4136,0.414,0.4145,0.4143,0.4142,0.4146,0.4136,0.4141,0.414,0.414,0.4138,0.4136,0.4134,0.4156,0.4157,0.4157,0,0,0.4085,0.409,0.4089,0.4093,0.4099,0.4105,0.4104,0.4112,0.4115,0.4115,0.4123,0.4124,0.4127,0.413,0.4132,0.4121,0.4127,0.4122,0.4113,0.411,0.4109,0.4107,0.4103,0.4101,0.4121,0.4121,0.4121,0,0.4077,0.408,0.4088,0.4089,0.4091,0.41,0.4099,0.4102,0.4108,0.4109,0.4113,0.4117,0.4121,0.4119,0.4116,0.4118,0.4117,0.4121,0.4108,0.4107,0.4106,0.4102,0.41,0.412,0.412,0.412,0.412,0,0.407,0.4071,0.407,0.4075,0.4077,0.4077,0.4084,0.4085,0.409,0.4094,0.4093,0.4098,0.4101,0.4101,0.4106,0.41,0.4102,0.4107,0.4114,0.4103,0.4099,0.4098,0.4119,0.4119,0.412,0.412,0,0,0.4054,0.4063,0.4062,0.4064,0.4071,0.4072,0.4071,0.4074,0.4074,0.4077,0.4076,0.4078,0.4083,0.4085,0.409,0.4087,0.4077,0.4093,0.4093,0.4089,0.4069,0.4065,0.4063,0.4081,0.4081,0.408,0.4068,0,0.4045,0.4045,0.4052,0.4049,0.405,0.4058,0.4057,0.406,0.4064,0.4065,0.4069,0.4069,0.4076,0.4077,0.4075,0.4079,0.4073,0.408,0.4079,0.4079,0.4078,0.4061,0.4057,0.4045,0.4067,0.4067,0.4066,0,0.4036,0.4038,0.4036,0.4041,0.4041,0.4041,0.4043,0.4044,0.4047,0.405,0.4051,0.4057,0.4055,0.4062,0.4059,0.4063,0.4063,0.4065,0.4064,0.4065,0.4072,0.406,0.4042,0.404,0.4064,0.4064,0.4064,0,0.4023,0.4026,0.4025,0.4026,0.4033,0.4032,0.4034,0.4038,0.4038,0.404,0.404,0.4042,0.4042,0.4043,0.4048,0.4052,0.4044,0.4051,0.4046,0.4045,0.4044,0.4044,0.4025,0.4044,0.4044,0.4044,0.4044,0,0.4013,0.4011,0.4019,0.4019,0.4016,0.4023,0.402,0.4023,0.4026,0.4025,0.4032,0.4031,0.4038,0.4037,0.4041,0.4037,0.4038,0.4039,0.404,0.4039,0.4038,0.4039,0.404,0.4044,0.4044,0.4044,0.4044,0,0.4,0.4005,0.4004,0.401,0.4011,0.4009,0.4013,0.4012,0.4015,0.4014,0.4014,0.402,0.4019,0.4024,0.4024,0.4027,0.4021,0.4024,0.402,0.4021,0.4014,0.4015,0.3995,0.3992,0.4013,0.4013,0.4013,0,0.3993,0.3991,0.3996,0.3996,0.3998,0.3998,0.3999,0.4005,0.4005,0.4007,0.4006,0.4005,0.4006,0.4004,0.4007,0.4007,0.401,0.4002,0.401,0.4007,0.4009,0.4009,0.4008,0.4001,0.4001,0.4001,0.4,0,0.398,0.3982,0.3983,0.3984,0.3984,0.3985,0.3987,0.3986,0.3993,0.3992,0.3991,0.3991,0.3991,0.3991,0.3991,0.3992,0.3997,0.3998,0.3997,0.3995,0.3993,0.3993,0.4016,0.3999,0.3999,0.3999,0.3999,0.3999,0.3969,0.3967,0.397,0.397,0.3972,0.3973,0.3972,0.3975,0.3974,0.3975,0.3978,0.3976,0.3978,0.3979,0.398,0.3978,0.3981,0.3979,0.3978,0.3978,0.3976,0.3993,0.3978,0.3978,0.3978,0.3978,0.3978,0,0.3956,0.3958,0.3957,0.3959,0.3959,0.3963,0.3964,0.3964,0.3962,0.3963,0.3963,0.3961,0.396,0.3963,0.3962,0.396,0.3962,0.3959,0.396,0.396,0.3974,0.3975,0.3958,0.3958,0.3958,0.3958,0.3958,0.3958,0.3949,0.3946,0.3949,0.3946,0.3948,0.3947,0.3947,0.3947,0.3948,0.3946,0.3945,0.3947,0.3948,0.3947,0.3946,0.3946,0.3945,0.3942,0.3943,0.3957,0.3959,0.3961,0.3962,0.3942,0.3942,0.3929,0.3929,0.3929]}]]